Wind_Speed
64 66 72 74 73 71 68 61 54 53 49 47 40 37 35 34 33 32 36 30 22 9 11 13 13 12 13 19 13 7 10 11 8 6 6 4 3 6 8 9 14 16 17 19
68 68 69 71 73 73 73 67 60 56 50 49 47 40 39 37 36 37 38 35 29 23 14 18 18 14 12 19 19 5 12 13 12 10 7 3 3 1 1 3 9 13 12 17
73 74 71 70 72 72 74 75 69 62 55 54 53 49 45 43 42 40 39 38 31 27 19 17 19 20 12 16 22 16 12 14 14 13 7 6 4 3 3 3 5 7 10 13
75 77 75 72 70 70 75 77 73 68 63 58 56 55 52 50 49 46 43 41 36 32 25 19 22 18 21 17 19 23 9 18 15 16 12 8 4 4 4 2 3 5 6 10
81 79 77 75 76 72 74 73 73 70 68 63 59 58 57 57 57 51 47 44 42 38 32 23 24 19 14 17 16 20 16 17 19 19 15 11 8 5 4 3 1 2 4 6
87 83 79 77 75 77 75 72 69 68 68 66 64 61 62 62 59 55 53 49 46 41 36 32 28 33 23 16 19 18 20 13 22 21 18 15 13 9 5 3 1 3 3 4
87 86 84 82 78 78 77 78 74 70 68 65 65 64 64 64 61 59 56 52 48 45 41 39 32 35 30 19 21 20 15 14 18 22 20 19 18 14 10 6 4 2 2 4
89 88 88 87 83 82 81 80 78 76 72 70 68 66 66 63 64 63 59 55 53 51 45 43 38 35 34 27 24 23 15 14 17 19 24 22 21 19 16 12 9 5 3 1
93 92 91 90 87 87 85 83 81 78 77 76 74 71 70 65 64 62 60 59 56 54 49 46 39 36 37 37 33 28 20 15 16 18 23 26 25 23 22 17 16 13 9 5
96 95 95 93 91 88 89 87 85 82 80 79 78 76 69 68 65 64 62 59 58 54 53 51 47 41 36 36 36 32 24 19 15 17 19 21 27 30 26 25 24 20 16 11
101 100 98 96 94 92 91 90 88 86 84 82 80 77 74 74 71 66 62 61 60 57 53 51 49 47 41 37 37 35 26 25 19 18 17 16 17 26 33 31 28 26 22 17
103 104 100 97 95 94 93 93 92 90 88 85 82 79 76 75 74 71 68 64 63 62 60 57 53 48 42 43 41 39 32 26 25 20 18 15 14 17 25 32 33 30 28 22
102 103 102 99 98 96 95 94 93 92 91 88 85 82 79 76 77 76 73 71 68 68 65 61 57 51 47 49 47 44 38 33 28 28 22 17 14 14 16 21 31 36 32 29
100 100 100 101 100 100 100 98 97 95 94 91 89 87 85 82 79 77 77 77 75 73 71 67 63 57 52 52 51 48 45 42 35 33 29 22 18 16 11 10 18 29 36 38
96 96 98 100 102 102 102 103 102 100 98 95 93 91 89 87 85 83 79 79 81 78 76 73 67 62 58 56 56 54 52 47 43 39 33 29 22 18 16 16 14 16 24 30
98 99 98 99 100 103 105 104 104 103 102 99 98 96 93 92 90 88 85 83 83 84 82 79 74 68 65 62 60 60 57 53 46 46 41 34 27 22 19 17 16 14 15 18
92 96 100 99 100 103 105 104 105 105 105 105 105 103 101 98 96 94 90 88 87 87 87 85 81 76 72 69 66 64 62 57 50 52 51 42 39 33 25 19 18 19 17 16
83 89 96 101 103 103 103 106 107 107 108 109 108 109 109 105 103 101 99 95 91 89 89 90 87 84 80 76 72 71 68 66 60 60 57 45 40 38 30 22 23 22 22 20
74 81 88 95 99 104 105 107 109 111 111 112 114 114 115 113 108 107 104 102 98 96 92 91 92 89 88 84 78 75 73 70 68 65 61 51 46 42 34 31 33 29 29 26
64 70 77 84 91 97 101 106 110 113 115 118 118 118 119 118 115 110 110 107 105 102 99 95 94 95 93 91 86 82 79 78 74 74 66 61 56 50 44 39 39 32 35 35
68 68 69 72 77 85 93 100 105 109 111 116 119 122 123 121 120 118 114 112 111 108 105 101 98 98 98 97 94 91 87 86 82 76 70 63 60 55 51 47 42 41 40 41
55 60 66 73 78 82 85 88 92 95 101 109 116 119 119 121 122 121 119 118 116 114 112 107 104 102 101 101 101 98 93 93 90 81 80 73 69 66 61 51 52 47 46 49
44 48 52 58 65 73 80 86 89 92 94 97 101 106 108 110 112 120 124 122 121 119 118 115 110 108 106 105 105 103 101 96 97 89 84 79 74 73 65 62 58 53 52 54
37 38 41 46 53 61 66 71 78 83 87 90 94 97 98 98 95 101 114 124 124 124 123 121 117 112 112 111 109 108 106 102 101 98 90 84 78 77 73 65 63 56 55 55
40 41 41 42 45 46 52 57 64 67 70 72 79 83 87 89 85 91 99 107 122 127 125 127 121 118 115 115 114 113 111 108 104 103 97 93 88 80 75 76 59 66 57 58
39 42 43 45 45 44 47 53 53 60 65 66 66 67 70 74 75 78 87 94 103 118 127 126 127 123 120 119 119 116 118 114 110 106 100 94 94 92 83 77 73 61 69 63
Wind_Direction
223 224 224 225 227 230 232 230 232 231 232 234 234 233 232 232 237 237 242 245 249 251 285 277 290 315 333 337 340 229 210 199 229 213 242 224 151 84 68 64 59 52 48 59
222 224 226 226 226 229 232 231 231 233 233 237 238 235 234 236 236 241 245 246 246 250 254 276 274 287 311 324 324 294 212 208 215 225 224 259 236 201 62 27 54 52 46 61
222 224 224 226 227 227 230 232 230 230 231 232 238 239 237 237 239 238 243 249 249 251 253 267 254 273 289 311 312 325 225 216 214 227 207 221 239 251 246 290 59 50 41 54
223 225 225 226 227 228 229 230 231 229 228 230 233 238 238 238 238 237 240 246 248 248 254 254 242 260 280 289 303 322 271 216 215 218 217 201 219 254 263 252 61 24 32 55
224 225 225 226 227 228 229 230 231 231 228 226 227 233 237 238 238 239 240 242 248 250 253 249 241 251 269 296 292 312 304 227 209 214 226 209 208 213 226 186 125 39 17 55
225 226 226 227 227 230 230 230 229 231 231 230 227 228 232 236 241 242 244 243 246 248 248 251 238 242 246 268 288 300 307 251 213 215 217 225 217 216 210 158 116 79 15 48
224 226 227 228 228 230 231 231 230 229 231 231 230 230 232 236 238 240 241 244 247 251 251 254 250 243 246 257 273 286 295 280 233 216 218 222 235 226 223 217 220 154 31 51
223 223 226 229 229 230 231 232 231 230 230 231 232 229 230 231 236 239 240 241 244 245 245 253 257 259 248 247 258 269 278 269 245 225 224 222 229 236 231 225 230 224 214 66
223 223 225 227 228 230 231 233 233 232 230 230 232 231 232 231 232 236 238 239 242 245 245 246 244 244 245 242 248 257 258 258 245 227 223 226 226 231 233 229 233 236 224 216
224 224 225 226 228 228 231 231 233 234 232 231 230 232 233 237 234 235 238 238 238 239 243 245 245 241 232 232 240 242 250 254 244 236 226 224 231 230 233 232 232 234 238 226
225 224 224 226 227 228 229 231 231 233 234 233 232 229 229 233 235 234 235 236 238 237 236 238 241 244 236 222 230 232 236 252 249 253 249 230 226 234 233 238 237 234 234 237
226 226 226 225 226 228 229 230 231 233 235 234 234 233 230 230 232 234 234 235 236 236 236 236 236 230 231 222 217 227 226 239 256 253 244 247 223 230 236 235 238 238 238 235
225 226 227 226 228 229 230 231 233 233 234 235 235 235 233 231 231 230 232 231 232 236 236 235 235 231 220 225 227 227 223 226 238 248 245 238 229 238 237 237 235 239 238 241
226 228 228 228 229 230 231 232 233 234 234 235 235 234 234 232 230 231 229 232 231 231 234 235 232 230 224 221 224 223 222 225 224 235 239 236 233 233 246 241 247 242 242 244
229 230 230 229 229 230 231 232 232 233 234 234 235 234 233 233 230 229 227 227 231 231 231 233 233 230 226 219 220 224 224 229 227 224 230 237 230 233 234 234 229 244 243 241
228 231 232 232 230 230 231 232 234 234 235 235 235 235 233 234 233 230 228 226 227 229 230 231 232 231 228 224 217 220 225 229 231 231 228 232 232 231 230 244 255 245 243 243
226 229 232 233 233 232 232 233 233 234 235 235 235 235 234 233 234 234 231 228 225 226 227 228 229 230 229 226 220 219 223 226 228 228 230 230 236 243 240 238 248 262 268 251
228 229 232 234 236 235 234 234 233 234 235 236 236 236 235 233 233 234 236 232 230 225 225 226 226 227 228 228 224 221 220 223 223 227 229 222 229 234 239 242 247 256 264 269
233 232 232 235 236 237 237 237 236 234 234 235 235 236 236 234 232 233 234 235 233 232 225 225 225 225 227 226 225 224 219 224 223 225 226 220 227 229 229 237 246 254 259 257
234 234 234 235 238 239 240 240 239 239 237 236 235 236 237 236 235 233 233 233 234 231 230 225 224 224 224 226 225 224 220 223 225 226 221 222 225 224 226 233 235 246 255 256
236 237 239 239 239 241 242 242 243 242 241 242 240 238 237 237 236 235 232 232 232 232 230 227 224 224 222 224 224 225 221 217 222 222 226 224 225 226 227 228 224 231 244 249
237 238 240 241 242 243 244 244 244 244 244 244 244 244 243 240 237 237 235 233 231 231 231 228 225 223 223 222 224 224 224 220 223 221 226 226 226 227 228 232 224 220 232 244
240 239 239 240 241 242 244 246 247 247 245 245 246 246 245 244 239 235 236 235 232 230 231 229 225 223 222 222 223 224 224 223 225 224 223 225 226 229 231 233 229 226 228 239
241 242 243 244 244 245 246 246 247 247 247 247 247 248 248 245 241 237 233 232 232 231 230 230 227 223 221 221 223 223 225 224 227 228 222 223 224 230 228 228 228 229 228 236
246 247 249 248 249 249 251 251 249 249 249 248 247 246 248 248 242 237 234 230 228 229 228 229 228 225 221 220 221 223 223 224 224 228 229 225 224 225 228 226 223 228 234 235
251 251 249 250 252 251 254 251 252 250 250 251 251 247 246 246 243 238 234 230 226 224 227 226 227 226 223 220 219 221 223 223 224 225 227 224 224 224 223 224 222 227 232 235
Height
10871 10879 10883 10891 10902 10911 10917 10929 10936 10940 10949 10954 10956 10964 10968 10970 10972 10974 10975 10983 10987 10992 10992 10992 10992 10991 10992 10992 10991 10991 10994 10996 10995 10995 10997 10998 10999 10998 10999 10998 10995 10992 10991 10990
10859 10865 10873 10882 10891 10899 10906 10917 10925 10933 10943 10945 10949 10957 10960 10963 10965 10968 10969 10976 10983 10987 10991 10990 10991 10990 10991 10992 10992 10990 10992 10995 10997 10996 10997 10998 11000 11000 11002 11002 10999 10996 10996 10995
10844 10848 10859 10868 10879 10887 10894 10901 10915 10927 10934 10938 10940 10948 10953 10956 10958 10963 10965 10969 10978 10982 10987 10989 10989 10990 10990 10991 10992 10990 10989 10994 10996 10997 10996 10998 11000 11001 11002 11003 11001 11001 11001 10999
10829 10834 10845 10856 10866 10875 10879 10888 10902 10917 10926 10932 10934 10937 10942 10947 10949 10955 10960 10962 10971 10977 10982 10987 10987 10989 10990 10991 10990 10990 10988 10990 10995 10997 10997 10998 11000 11003 11003 11003 11003 11004 11004 11003
10813 10820 10832 10843 10849 10859 10863 10879 10891 10904 10915 10923 10926 10927 10932 10933 10937 10949 10956 10959 10964 10972 10976 10983 10984 10986 10988 10990 10990 10990 10989 10988 10992 10996 10997 10998 11000 11003 11004 11004 11005 11006 11006 11005
10795 10808 10819 10828 10839 10843 10854 10865 10877 10888 10898 10909 10915 10917 10918 10922 10930 10941 10945 10954 10959 10965 10971 10975 10980 10982 10984 10986 10988 10989 10988 10987 10988 10993 10996 10998 11000 11002 11004 11005 11006 11008 11009 11008
10783 10794 10803 10812 10825 10829 10839 10848 10862 10874 10884 10895 10903 10907 10909 10918 10922 10929 10937 10947 10954 10960 10965 10968 10973 10977 10981 10982 10985 10986 10987 10987 10988 10989 10993 10997 10999 11000 11002 11006 11008 11009 11010 11009
10767 10778 10786 10794 10808 10815 10823 10832 10845 10859 10870 10879 10886 10891 10898 10908 10914 10921 10931 10939 10943 10949 10959 10962 10967 10972 10976 10979 10981 10984 10984 10985 10986 10986 10989 10994 10997 10999 11001 11003 11007 11009 11010 11010
10746 10759 10767 10775 10788 10798 10809 10818 10827 10839 10851 10862 10869 10876 10883 10898 10905 10912 10922 10930 10936 10941 10948 10954 10957 10965 10971 10975 10977 10981 10982 10984 10985 10986 10985 10989 10993 10997 11000 11002 11004 11007 11009 11010
10725 10736 10747 10757 10770 10783 10789 10801 10809 10820 10832 10842 10853 10865 10883 10887 10897 10904 10913 10920 10927 10933 10938 10945 10949 10955 10960 10969 10973 10976 10979 10982 10983 10984 10984 10984 10988 10992 10996 10999 11002 11004 11006 11008
10698 10710 10727 10740 10752 10764 10774 10783 10793 10801 10811 10823 10836 10854 10868 10873 10880 10892 10900 10908 10915 10922 10927 10933 10942 10948 10953 10961 10967 10971 10974 10978 10979 10982 10984 10983 10983 10987 10991 10995 10998 11002 11003 11006
10679 10694 10711 10726 10736 10746 10757 10765 10776 10785 10794 10806 10820 10835 10851 10861 10869 10879 10888 10894 10901 10908 10914 10920 10929 10940 10948 10953 10957 10963 10967 10973 10976 10979 10980 10982 10982 10982 10984 10989 10993 10997 11001 11002
10660 10675 10692 10711 10721 10730 10739 10748 10758 10767 10778 10790 10804 10820 10833 10846 10853 10863 10870 10878 10887 10892 10901 10910 10917 10928 10938 10943 10949 10955 10959 10963 10969 10973 10976 10977 10979 10980 10980 10981 10986 10991 10995 10999
10647 10660 10676 10691 10703 10710 10718 10728 10737 10748 10760 10773 10783 10799 10810 10823 10835 10845 10857 10863 10870 10877 10884 10894 10906 10916 10926 10931 10938 10945 10949 10952 10958 10966 10970 10973 10974 10976 10979 10980 10981 10984 10988 10991
10635 10645 10655 10666 10678 10688 10697 10704 10715 10727 10740 10755 10763 10775 10789 10799 10813 10824 10837 10846 10853 10863 10870 10878 10889 10902 10911 10920 10927 10934 10939 10944 10949 10955 10962 10965 10968 10971 10973 10976 10977 10980 10981 10984
10616 10625 10632 10642 10655 10664 10672 10686 10698 10710 10721 10734 10743 10753 10769 10778 10787 10801 10814 10825 10833 10842 10854 10864 10872 10884 10895 10905 10915 10922 10929 10934 10943 10947 10952 10958 10961 10965 10967 10970 10973 10975 10977 10978
10598 10606 10612 10621 10630 10640 10653 10667 10677 10685 10696 10706 10717 10727 10742 10756 10767 10778 10791 10803 10813 10824 10834 10846 10858 10866 10879 10890 10900 10909 10917 10924 10928 10936 10941 10947 10953 10958 10961 10963 10968 10970 10972 10974
10582 10591 10596 10602 10608 10619 10633 10640 10652 10663 10672 10681 10691 10700 10715 10733 10746 10756 10765 10781 10792 10806 10816 10826 10839 10849 10860 10872 10884 10893 10901 10908 10915 10921 10930 10937 10943 10948 10952 10956 10959 10963 10967 10968
10565 10572 10578 10581 10587 10595 10604 10614 10623 10633 10644 10654 10660 10670 10682 10699 10719 10732 10745 10754 10771 10782 10799 10808 10819 10832 10841 10852 10864 10877 10888 10892 10899 10910 10919 10926 10933 10937 10941 10946 10951 10955 10959 10962
10548 10552 10560 10565 10568 10574 10581 10587 10595 10604 10618 10623 10633 10644 10655 10671 10690 10708 10717 10728 10741 10758 10772 10788 10800 10812 10824 10833 10846 10856 10869 10878 10887 10894 10904 10911 10920 10926 10930 10936 10941 10947 10951 10954
10535 10539 10543 10547 10551 10555 10554 10558 10570 10580 10590 10595 10607 10617 10627 10643 10659 10672 10690 10703 10714 10726 10743 10762 10778 10789 10803 10814 10825 10837 10848 10860 10870 10880 10890 10898 10905 10912 10917 10923 10930 10936 10942 10946
10520 10524 10527 10531 10534 10534 10534 10538 10543 10552 10560 10566 10571 10581 10597 10611 10627 10640 10657 10671 10684 10696 10711 10731 10750 10767 10780 10791 10803 10814 10827 10840 10852 10865 10874 10882 10889 10898 10903 10911 10919 10924 10931 10938
10506 10507 10509 10512 10514 10513 10513 10517 10522 10527 10534 10539 10542 10548 10559 10571 10590 10605 10620 10638 10653 10668 10679 10697 10719 10738 10753 10767 10779 10792 10805 10819 10829 10842 10855 10865 10875 10883 10891 10898 10908 10912 10917 10924
10492 10493 10494 10496 10497 10496 10497 10498 10500 10502 10507 10511 10516 10521 10528 10537 10551 10565 10580 10594 10615 10632 10648 10662 10685 10707 10725 10739 10754 10768 10781 10797 10807 10819 10835 10846 10857 10866 10876 10885 10895 10901 10906 10910
10481 10481 10481 10480 10480 10483 10481 10480 10479 10482 10483 10486 10490 10494 10497 10504 10515 10526 10540 10557 10572 10592 10614 10628 10652 10674 10693 10712 10726 10742 10758 10772 10786 10797 10813 10827 10837 10847 10858 10870 10879 10888 10893 10898
10465 10466 10468 10466 10465 10465 10463 10461 10464 10463 10462 10464 10466 10471 10475 10478 10486 10498 10506 10522 10537 10560 10577 10601 10617 10638 10659 10680 10697 10715 10729 10747 10760 10774 10790 10805 10815 10825 10835 10848 10861 10871 10881 10888